This is the latest recevied weather packets stored in our database for station/object SP3OTE-2. If no packets are shown the sender has not sent any weather packets the latest 10 day(s).
| Time | Temp. | Humidity | Pressure | Rain* | Wind** | Luminosity | Snow |
|---|---|---|---|---|---|---|---|
| 1777927592 | 16.67° C | 60% | 1011.9 hPa | - | - | - | - |
| 1777926992 | 16.67° C | 58% | 1012.1 hPa | - | - | - | - |
| 1777926391 | 17.22° C | 58% | 1012 hPa | - | - | - | - |
| 1777925791 | 17.22° C | 58% | 1011.8 hPa | - | - | - | - |
| 1777925191 | 17.22° C | 57% | 1011.9 hPa | - | - | - | - |
| 1777924590 | 17.22° C | 56% | 1011.7 hPa | - | - | - | - |
| 1777923991 | 17.78° C | 55% | 1011.9 hPa | - | - | - | - |
| 1777923390 | 18.33° C | 53% | 1011.8 hPa | - | - | - | - |
| 1777922788 | 18.33° C | 53% | 1011.8 hPa | - | - | - | - |
| 1777922188 | 18.89° C | 51% | 1011.8 hPa | - | - | - | - |
| 1777921588 | 19.44° C | 49% | 1011.7 hPa | - | - | - | - |
| 1777920987 | 20° C | 47% | 1011.6 hPa | - | - | - | - |
| 1777920388 | 21.11° C | 45% | 1011.5 hPa | - | - | - | - |
| 1777919787 | 21.11° C | 45% | 1011.6 hPa | - | - | - | - |
| 1777919187 | 21.67° C | 44% | 1011.4 hPa | - | - | - | - |
| 1777918586 | 21.67° C | 44% | 1011.1 hPa | - | - | - | - |
| 1777917986 | 22.78° C | 42% | 1011.1 hPa | - | - | - | - |
| 1777917386 | 23.89° C | 40% | 1011.1 hPa | - | - | - | - |
| 1777916786 | 25° C | 37% | 1011 hPa | - | - | - | - |
| 1777916185 | 26.67° C | 34% | 1011 hPa | - | - | - | - |
| 1777915585 | 27.22° C | 33% | 1011 hPa | - | - | - | - |
| 1777914985 | 27.78° C | 33% | 1010.8 hPa | - | - | - | - |
| 1777914385 | 28.89° C | 31% | 1010.9 hPa | - | - | - | - |
| 1777913784 | 28.89° C | 31% | 1010.9 hPa | - | - | - | - |
| 1777913184 | 28.89° C | 30% | 1010.9 hPa | - | - | - | - |
* Rain since midnight (hover to see other rain measurements)
** Current wind speed in m/s (hover to see current wind gust speed)